KAZSTSAT

Last updated on Wed Sep 17 2025 00:02:31 GMT+0000 (Coordinated Universal Time)

1 43783U 18099AB 25259.56417161 .00000824 00000+0 72705-4 0 9994 2 43783 97.4656 298.4722 0006422 241.2940 118.7639 14.98955375370308
UTC large
Height (km)
Speed (km/s)
/
Latitude / Longitude
Inclination (degrees)
Orbital Period (minutes)
Azimuth
Elevation
Range (km)
Doppler Factor

Next 0 passes for location: London (51.5072 / 0.1276)

Sorry there are no passes over London.